S53PJ-6 Weather Reports


Display with metric or nautical units.
time (UTC)temp
F
wind
direction
speed
MPH
gust
MPH
rain 1hr
in
rain 24hr
in
rain mn
in
humidity
%
barometer
mb
20190124060152 25 0 0.0 0.0 0.00 0.00 0.00 84 8951.0
20190124055552 25 0 0.0 0.0 0.00 0.00 0.00 84 8951.0
20190124054953 25 315 0.0 0.0 0.00 0.00 0.00 84 8951.0
20190124054353 25 315 0.0 0.0 0.00 0.00 0.00 84 8951.0
20190124053753 25 315 0.0 0.0 0.00 0.00 0.00 84 8951.0
20190124053153 25 315 0.0 0.0 0.00 0.00 0.00 84 8951.1
20190124052553 25 315 0.0 0.0 0.00 0.00 0.00 84 8950.9
20190124051953 25 0 0.0 0.0 0.00 0.00 0.00 84 8950.8
20190124051353 25 315 0.0 0.0 0.00 0.00 0.00 84 8950.7
20190124050753 25 315 0.0 0.0 0.00 0.00 0.00 84 8950.7
20190124050153 25 315 0.0 0.0 0.00 0.00 0.00 84 8950.7
20190124045553 25 315 0.0 0.0 0.00 0.00 0.00 84 8950.6
20190124044953 25 0 0.0 0.0 0.00 0.00 0.00 84 8950.5
20190124044353 25 0 0.0 0.0 0.00 0.00 0.00 84 8950.3
20190124043753 25 0 0.0 0.0 0.00 0.00 0.00 84 8950.3
20190124043153 25 315 0.0 0.0 0.00 0.00 0.00 84 8950.3
20190124042553 25 315 0.0 0.0 0.00 0.00 0.00 84 8950.3
20190124041953 25 315 0.0 0.0 0.00 0.00 0.00 84 8950.2
20190124041353 25 315 0.0 0.0 0.00 0.00 0.00 84 8950.1
20190124040753 25 0 0.0 0.0 0.00 0.00 0.00 84 8950.2
20190124040153 25 0 0.0 0.0 0.00 0.00 0.00 84 8950.1
20190124035554 25 0 0.0 0.0 0.00 0.00 0.00 84 8950.1
20190124034953 25 0 0.0 0.0 0.00 0.00 0.00 84 8950.0
20190124034353 25 315 0.0 0.0 0.00 0.00 0.00 84 8950.0
20190124033753 25 315 0.0 0.0 0.00 0.00 0.00 84 8950.0
20190124033153 25 0 0.0 0.0 0.00 0.00 0.00 85 8949.9
20190124032553 25 0 0.0 0.0 0.00 0.00 0.00 85 8949.8
20190124031953 25 315 0.0 0.0 0.00 0.00 0.00 85 8949.7
20190124031353 25 0 0.0 0.0 0.00 0.00 0.00 85 8949.6
20190124030753 25 0 0.0 0.0 0.00 0.00 0.00 85 8949.7
20190124030153 25 0 0.0 0.0 0.00 0.00 0.00 85 8949.5
20190124025553 25 0 0.0 0.0 0.00 0.00 0.00 85 8949.5
20190124024953 25 0 0.0 0.0 0.00 0.00 0.00 85 8949.5
20190124024354 24 315 0.0 0.0 0.00 0.00 0.00 85 8949.5
20190124023754 24 270 0.0 0.0 0.00 0.00 0.00 85 8949.5
20190124023154 24 270 0.0 0.0 0.00 0.00 0.00 85 8949.5
20190124022554 24 270 0.0 0.0 0.00 0.00 0.00 85 8949.5
20190124021954 25 270 0.0 0.0 0.00 0.00 0.00 85 8949.3
20190124021354 25 270 0.0 0.0 0.00 0.00 0.00 85 8949.3
20190124020754 25 270 0.0 0.0 0.00 0.00 0.00 85 8949.3
20190124020155 25 270 0.0 0.0 0.00 0.00 0.00 85 8949.4
20190124015554 25 270 0.0 0.0 0.00 0.00 0.00 85 8949.3
20190124014354 24 0 0.0 0.0 0.00 0.00 0.00 85 8949.2
20190124013754 24 0 0.0 0.0 0.00 0.00 0.00 85 8949.4
20190124013154 24 135 0.0 0.0 0.00 0.00 0.00 85 8949.5
20190124012554 24 0 0.0 0.0 0.00 0.00 0.00 85 8949.5
20190124011954 24 315 0.0 0.0 0.00 0.00 0.00 85 8949.5
20190124011354 24 270 0.0 0.0 0.00 0.00 0.00 85 8949.5
20190124010754 24 315 0.0 0.0 0.00 0.00 0.00 85 8949.4
20190124010154 24 315 0.0 0.0 0.00 0.00 0.00 85 8949.2
20190124005554 24 315 0.0 0.0 0.00 0.00 0.00 85 8949.2
20190124004954 24 315 0.0 0.0 0.00 0.00 0.00 85 8949.2
20190124004354 24 315 0.0 0.0 0.00 0.00 0.00 85 8949.2
20190124003754 24 270 0.0 0.0 0.00 0.00 0.00 85 8949.1
20190124003154 24 315 0.0 0.0 0.00 0.00 0.00 85 8949.1
20190124002554 24 45 0.0 0.0 0.00 0.00 0.00 85 8949.1
20190124001954 24 315 0.0 0.0 0.00 0.00 0.00 85 8949.1
20190124001354 24 315 0.0 0.0 0.00 0.00 0.00 85 8949.0
20190124000754 24 315 0.0 0.0 0.00 0.00 0.00 85 8948.9
20190124000154 24 315 0.0 0.0 0.00 0.00 0.00 85 8949.0
20190123235554 24 315 0.0 0.0 0.00 0.00 0.00 85 8948.8
20190123234954 24 270 0.0 0.0 0.00 0.00 0.00 85 8949.0
20190123234354 24 45 0.0 0.0 0.00 0.00 0.00 85 8949.0
20190123233754 24 45 0.0 0.0 0.00 0.00 0.00 85 8949.0
20190123233155 24 315 0.0 0.0 0.00 0.00 0.00 85 8949.0
20190123232555 24 315 0.0 0.0 0.00 0.00 0.00 85 8949.0
20190123231955 24 0 0.0 0.0 0.00 0.00 0.00 85 8949.1
20190123231355 24 315 0.0 0.0 0.00 0.00 0.00 85 8949.1
20190123230755 24 315 0.0 0.0 0.00 0.00 0.00 85 8949.0
20190123230155 24 315 0.0 0.0 0.00 0.00 0.00 85 8949.0
20190123225555 24 315 0.0 0.0 0.00 0.00 0.00 85 8949.0
20190123224955 24 270 0.0 0.0 0.00 0.00 0.00 85 8949.0
20190123224355 24 270 0.0 0.0 0.00 0.00 0.00 85 8949.1
20190123223755 24 270 0.0 0.0 0.00 0.00 0.00 85 8948.9
20190123223155 24 270 0.0 0.0 0.00 0.00 0.00 85 8948.9
20190123222555 24 225 0.0 0.0 0.00 0.00 0.00 85 8949.1
20190123221955 24 270 0.0 0.0 0.00 0.00 0.00 85 8949.0
20190123221355 24 270 0.0 0.0 0.00 0.00 0.00 85 8949.2
20190123220755 24 270 0.0 0.0 0.00 0.00 0.00 85 8949.2
20190123220155 24 315 0.0 0.0 0.00 0.00 0.00 85 8949.0
20190123214955 24 315 0.0 0.0 0.00 0.00 0.00 85 8948.9
20190123214355 24 270 0.0 0.0 0.00 0.00 0.00 85 8949.0
20190123213755 24 315 0.0 0.0 0.00 0.00 0.00 85 8949.0
20190123213158 24 315 0.0 0.0 0.00 0.00 0.00 85 8948.8
20190123212555 24 0 0.0 0.0 0.00 0.00 0.00 85 8948.8
20190123211956 24 0 0.0 0.0 0.00 0.00 0.00 85 8948.8
20190123211355 24 0 0.0 0.0 0.00 0.00 0.00 85 8948.8
20190123210755 24 315 0.0 0.0 0.00 0.00 0.00 85 8948.8
20190123210155 24 0 0.0 0.0 0.00 0.00 0.00 85 8948.9
20190123205555 24 0 0.0 0.0 0.00 0.00 0.00 85 8948.7
20190123204955 24 315 0.0 0.0 0.00 0.00 0.00 85 8948.6
20190123203755 24 270 0.0 0.0 0.00 0.00 0.00 85 8948.6
20190123203155 24 270 0.0 0.0 0.00 0.00 0.00 85 8948.6
20190123202559 24 270 0.0 0.0 0.00 0.00 0.00 85 8948.6
20190123201956 24 270 0.0 0.0 0.00 0.00 0.00 85 8948.6
20190123201356 24 270 0.0 0.0 0.00 0.00 0.00 85 8948.5
20190123200756 24 270 0.0 0.0 0.00 0.00 0.00 85 8948.4
20190123200156 24 270 0.0 0.0 0.00 0.00 0.00 85 8948.4
20190123195556 24 270 0.0 0.0 0.00 0.00 0.00 85 8948.5
20190123194956 24 315 0.0 0.0 0.00 0.00 0.00 85 8948.6
20190123194356 24 315 0.0 0.0 0.00 0.00 0.00 85 8948.5
20190123193756 24 270 0.0 0.0 0.00 0.00 0.00 84 8948.5
20190123193156 24 0 0.0 0.0 0.00 0.00 0.00 84 8948.3
20190123192556 24 270 0.0 0.0 0.00 0.00 0.00 84 8948.4
20190123191956 24 270 0.0 0.0 0.00 0.00 0.00 84 8948.2
20190123191356 24 270 0.0 0.0 0.00 0.00 0.00 84 8948.4
20190123190757 24 0 0.0 0.0 0.00 0.00 0.00 84 8948.1
20190123190156 24 270 0.0 0.0 0.00 0.00 0.00 84 8948.4
20190123185556 24 270 0.0 0.0 0.00 0.00 0.00 84 8948.2
20190123184956 24 270 0.0 0.0 0.00 0.00 0.00 84 8948.2
20190123184356 24 270 0.0 0.0 0.00 0.00 0.00 84 8948.2
20190123183756 24 270 0.0 0.0 0.00 0.00 0.00 84 8948.2
20190123183156 24 270 0.0 0.0 0.00 0.00 0.00 84 8948.3
20190123182556 24 225 0.0 0.0 0.00 0.00 0.00 84 8948.4
20190123182000 24 270 0.0 0.0 0.00 0.00 0.00 84 8948.3
20190123181356 24 270 0.0 0.0 0.00 0.00 0.00 84 8948.3
20190123180756 24 270 0.0 0.0 0.00 0.00 0.00 84 8948.1
20190123180156 24 270 0.0 0.0 0.00 0.00 0.00 84 8948.1
20190123175556 24 270 0.0 0.0 0.00 0.00 0.00 83 8948.0
20190123174956 24 270 0.0 0.0 0.00 0.00 0.00 83 8948.1
20190123174356 24 270 0.0 0.0 0.00 0.00 0.00 83 8948.2
20190123173756 24 270 0.0 0.0 0.00 0.00 0.00 83 8948.1
20190123173158 25 270 0.0 0.0 0.00 0.00 0.00 83 8948.0
20190123172556 25 270 0.0 0.0 0.00 0.00 0.00 83 8947.9
20190123171956 25 270 0.0 0.0 0.00 0.00 0.00 83 8947.9
20190123171357 25 270 0.0 0.0 0.00 0.00 0.00 83 8948.0
20190123170757 25 270 0.0 0.0 0.00 0.00 0.00 83 8947.9
20190123170157 25 0 0.0 0.0 0.00 0.00 0.00 83 8947.9
20190123165557 25 270 0.0 0.0 0.00 0.00 0.00 83 8947.8
20190123164957 25 270 0.0 0.0 0.00 0.00 0.00 83 8947.7
20190123164357 25 0 0.0 0.0 0.00 0.00 0.00 83 8947.6
20190123163757 25 0 0.0 0.0 0.00 0.00 0.00 83 8947.6
20190123163157 25 270 0.0 0.0 0.00 0.00 0.00 82 8947.8
20190123162601 25 270 0.0 0.0 0.00 0.00 0.00 82 8947.5
20190123161957 25 0 0.0 0.0 0.00 0.00 0.00 82 8947.5
20190123161357 25 270 0.0 0.0 0.00 0.00 0.00 82 8947.6
20190123160757 25 315 0.0 0.0 0.00 0.00 0.00 82 8947.5
20190123160157 25 0 0.0 0.0 0.00 0.00 0.00 82 8947.4
20190123155557 25 270 0.0 0.0 0.00 0.00 0.00 81 8947.4
20190123154957 25 270 0.0 0.0 0.00 0.00 0.00 81 8947.4
20190123154357 25 315 0.0 0.0 0.00 0.00 0.00 81 8947.4
20190123153757 25 315 0.0 0.0 0.00 0.00 0.00 81 8947.3
20190123153157 26 315 0.0 0.0 0.00 0.00 0.00 81 8947.3
20190123152557 26 315 0.0 0.0 0.00 0.00 0.00 81 8947.4
20190123151957 26 315 0.0 0.0 0.00 0.00 0.00 80 8947.3
20190123151357 26 315 0.0 0.0 0.00 0.00 0.00 80 8947.3
20190123150801 26 315 0.0 0.0 0.00 0.00 0.00 80 8947.3
20190123150157 26 0 0.0 0.0 0.00 0.00 0.00 80 8947.3
20190123145558 26 0 0.0 0.0 0.00 0.00 0.00 79 8947.0
20190123144957 26 0 0.0 0.0 0.00 0.00 0.00 79 8947.2
20190123144357 26 315 0.0 0.0 0.00 0.00 0.00 79 8947.2
20190123143757 27 315 0.0 0.0 0.00 0.00 0.00 79 8947.2
20190123143157 27 270 0.0 0.0 0.00 0.00 0.00 79 8947.2
20190123142557 27 270 0.0 0.0 0.00 0.00 0.00 79 8947.3
20190123141358 28 270 0.0 0.0 0.00 0.00 0.00 78 8947.2
20190123140757 28 315 0.0 0.0 0.00 0.00 0.00 78 8947.2
20190123140158 29 270 0.0 0.0 0.00 0.00 0.00 77 8947.2
20190123135558 29 270 0.0 0.0 0.00 0.00 0.00 77 8947.1
20190123134958 29 270 0.0 0.0 0.00 0.00 0.00 77 8947.2
20190123134358 29 270 0.0 0.0 0.00 0.00 0.00 77 8947.2
20190123133758 29 270 0.0 0.0 0.00 0.00 0.00 78 8947.2
20190123133158 29 270 0.0 0.0 0.00 0.00 0.00 78 8947.2
20190123132558 29 225 0.0 0.0 0.00 0.00 0.00 79 8947.3
20190123131958 29 270 0.0 0.0 0.00 0.00 0.00 79 8947.3
20190123130758 29 270 0.0 0.0 0.00 0.00 0.00 79 8947.3
20190123130158 29 270 0.0 0.0 0.00 0.00 0.00 79 8947.3
20190123125558 29 270 0.0 0.0 0.00 0.00 0.00 79 8947.4
20190123124959 29 270 0.0 0.0 0.00 0.00 0.00 80 8947.4
20190123124358 29 270 0.0 0.0 0.00 0.00 0.00 80 8947.4
20190123123758 28 270 0.0 0.0 0.00 0.00 0.00 80 8947.4
20190123123158 28 270 0.0 0.0 0.00 0.00 0.00 80 8947.5
20190123122558 28 270 0.0 0.0 0.00 0.00 0.00 81 8947.5
20190123121958 28 270 0.0 0.0 0.00 0.00 0.00 81 8947.5
20190123121358 28 225 0.0 0.0 0.00 0.00 0.00 81 8947.6
20190123120758 28 270 0.0 0.0 0.00 0.00 0.00 81 8947.6
20190123120158 28 270 0.0 0.0 0.00 0.00 0.00 81 8947.7
20190123115558 28 270 0.0 0.0 0.00 0.00 0.00 81 8947.8
20190123114958 27 270 0.0 0.0 0.00 0.00 0.00 81 8948.0
20190123114358 27 270 0.0 0.0 0.00 0.00 0.00 81 8948.0
20190123113758 27 270 0.0 0.0 0.00 0.00 0.00 81 8948.1
20190123113158 27 270 0.0 0.0 0.00 0.00 0.00 81 8948.0
20190123112602 27 0 0.0 0.0 0.00 0.00 0.00 82 8948.1
20190123111958 27 270 0.0 0.0 0.00 0.00 0.00 82 8948.1
20190123111358 27 270 0.0 0.0 0.00 0.00 0.00 82 8948.1
20190123110758 27 270 0.0 0.0 0.00 0.00 0.00 82 8948.2
20190123110158 27 270 0.0 0.0 0.00 0.00 0.00 82 8948.2
20190123105559 27 270 0.0 0.0 0.00 0.00 0.00 82 8948.2
20190123104959 27 270 0.0 0.0 0.00 0.00 0.00 82 8948.4
20190123104359 27 270 0.0 0.0 0.00 0.00 0.00 83 8948.4
20190123103759 27 315 0.0 0.0 0.00 0.00 0.00 83 8948.4
20190123103159 26 225 0.0 0.0 0.00 0.00 0.00 83 8948.3
20190123102559 26 270 0.0 0.0 0.00 0.00 0.00 83 8948.5
20190123101959 26 270 0.0 0.0 0.00 0.00 0.00 83 8948.6
20190123101359 26 270 0.0 0.0 0.00 0.00 0.00 83 8948.6
20190123100759 26 315 0.0 0.0 0.00 0.00 0.00 83 8948.7
20190123100159 26 315 0.0 0.0 0.00 0.00 0.00 83 8948.8
20190123095559 26 315 0.0 0.0 0.00 0.00 0.00 84 8948.7
20190123094959 26 270 0.0 0.0 0.00 0.00 0.00 84 8948.8
20190123094359 26 270 0.0 0.0 0.00 0.00 0.00 84 8948.8
20190123093759 26 315 0.0 0.0 0.00 0.00 0.00 84 8949.0
20190123093159 26 270 0.0 0.0 0.00 0.00 0.00 84 8948.9
20190123092559 26 270 0.0 0.0 0.00 0.00 0.00 84 8948.9
20190123091959 26 270 0.0 0.0 0.00 0.00 0.00 84 8949.0
20190123091359 26 315 0.0 0.0 0.00 0.00 0.00 84 8949.0
20190123090759 26 315 0.0 0.0 0.00 0.00 0.00 84 8949.1
20190123090159 26 0 0.0 0.0 0.00 0.00 0.00 84 8949.1
20190123085559 25 270 0.0 0.0 0.00 0.00 0.00 84 8948.9
20190123084959 25 270 0.0 0.0 0.00 0.00 0.00 84 8949.0
20190123084359 25 270 0.0 0.0 0.00 0.00 0.00 84 8949.0
20190123083759 25 270 0.0 0.0 0.00 0.00 0.00 84 8949.0
20190123083159 25 270 0.0 0.0 0.00 0.00 0.00 84 8949.0
20190123082559 25 270 0.0 0.0 0.00 0.00 0.00 85 8949.1
20190123081959 25 270 0.0 0.0 0.00 0.00 0.00 85 8949.1
20190123081400 25 315 0.0 0.0 0.00 0.00 0.00 85 8949.1
20190123080759 25 270 0.0 0.0 0.00 0.00 0.00 85 8949.2
20190123080200 25 315 0.0 0.0 0.00 0.00 0.00 85 8949.1
20190123075600 25 315 0.0 0.0 0.00 0.00 0.00 85 8949.2
20190123075000 24 315 0.0 0.0 0.00 0.00 0.00 85 8949.2
20190123074400 24 0 0.0 0.0 0.00 0.00 0.00 85 8949.2
20190123073800 24 315 0.0 0.0 0.00 0.00 0.00 85 8949.2
20190123073200 24 315 0.0 0.0 0.00 0.00 0.00 85 8949.3
20190123072600 24 270 0.0 0.0 0.00 0.00 0.00 85 8949.2
20190123072000 24 270 0.0 0.0 0.00 0.00 0.00 85 8949.3
20190123071404 24 270 0.0 0.0 0.00 0.00 0.00 85 8949.3
20190123070200 24 270 0.0 0.0 0.00 0.00 0.00 85 8949.5
20190123065600 24 270 0.0 0.0 0.00 0.00 0.00 85 8949.5
20190123065000 24 315 0.0 0.0 0.00 0.00 0.00 85 8949.5
20190123064404 24 270 0.0 0.0 0.00 0.00 0.00 85 8949.4
20190123063800 24 270 0.0 0.0 0.00 0.00 0.00 85 8949.4
20190123063200 24 0 0.0 0.0 0.00 0.00 0.00 85 8949.3
20190123062600 24 270 0.0 0.0 0.00 0.00 0.00 85 8949.4
20190123062000 24 315 0.0 0.0 0.00 0.00 0.00 85 8949.3
20190123061401 24 270 0.0 0.0 0.00 0.00 0.00 85 8949.4
20190123060800 24 270 0.0 0.0 0.00 0.00 0.00 85 8949.3